Location: Calvera
(42.3882°N, 0.6137°E)
Time: 13:30:24
(UTC+00:00)

H-2A R/B - Pass Details

Date: 28 October 2020
Orbit: 528 x 652 km, 98.3° (Epoch: 24 November)

Event Time Altitude Azimuth Distance (km) Brightness Sun altitude
Rises 05:22:16 0° 20° (NNE) 2,935 6.2 -12.4°
Reaches altitude 10° 05:24:37 10° 28° (NNE) 2,006 5.4 -12.0°
Maximum altitude 05:28:44 41° 98° (E) 895 4.1 -11.2°
Drops below altitude 10° 05:32:41 10° 169° (S) 1,921 5.3 -10.5°
Sets 05:34:54 0° 177° (S) 2,796 6.1 -10.1°
